[[{"header":{"parameterUnit":"m.s-1","parameterCategory":1,"la1":30.2991,"la2":30.254,"lo1":-89.0895,"lo2":-89.0444,"dy":0.0017,"dx":0.0017,"nx":28,"ny":28,"refTime":"2025-08-13T21:00:00:Z","depth":0,"parameterNumber":2,"parameterNumberName":"U-component_of_WINDS"},"data":[0,0,0,0,0,0,0,0,0,0,0,0,0,0,0,0,0,0,0,0,0,0,0,0,0,0,0,0,0,0,0,0,0,0,0,0,0,0,0,0,0,0,0,0,0,0,0,0,0,0,0,0,0,0,0,0,0,0,-0.6281,-0.6281,0,-0.6359,-0.636,-0.6361,-0.644,-0.6441,-0.6442,-0.6443,-0.6523,-0.6524,-0.6525,0,0,0,0,0,0,0,0,0,0,0,0,0,-0.6198,-0.6199,-0.628,-0.6281,-0.6282,-0.6359,-0.636,-0.6361,-0.644,-0.6441,-0.6443,-0.6444,-0.6523,-0.6524,-0.6526,0,0,0,0,0,0,0,0,0,0,0,0,0,-0.6251,-0.6199,-0.628,-0.6331,-0.6336,-0.6359,-0.636,-0.6362,-0.644,-0.6441,-0.6443,-0.6445,-0.6522,-0.6524,-0.6526,-0.6505,0,0,-0.6531,-0.6532,0,0,0,0,0,0,0,0,-0.6248,-0.6254,-0.6323,-0.6328,-0.6334,-0.6392,-0.6361,-0.641,-0.6439,-0.64,-0.6443,-0.6445,-0.6478,-0.6484,-0.6495,-0.6508,-0.6512,-0.6531,-0.6532,-0.6533,-0.6533,0,0,0,0,0,0,0,-0.6244,-0.6251,-0.6312,-0.6323,-0.633,-0.635,-0.6359,-0.637,-0.6429,-0.6404,-0.641,-0.6418,-0.6481,-0.6493,-0.6497,-0.6513,-0.6531,-0.6533,-0.6534,-0.6534,-0.6514,-0.6512,0,0,0,0,0,0,-0.6233,-0.6247,-0.6309,-0.6314,-0.6294,-0.635,-0.636,-0.6371,-0.643,-0.644,-0.6417,-0.6422,-0.6489,-0.6495,-0.65,-0.648,-0.6533,-0.6534,-0.6535,-0.6515,-0.6513,-0.6511,0,0,0,0,0,0,-0.623,-0.6237,-0.6306,-0.6282,-0.6293,-0.635,-0.6361,-0.6372,-0.6384,-0.6439,-0.645,-0.6418,-0.6491,-0.6498,-0.6503,-0.6484,-0.6535,-0.6537,-0.6517,-0.6515,-0.6512,-0.6438,0,0,0,0,0,0,-0.6228,-0.6236,-0.6229,-0.6282,-0.6294,-0.6307,-0.636,-0.6373,-0.6387,-0.6394,-0.6443,-0.6453,-0.6493,-0.65,-0.6505,-0.6487,-0.6538,-0.6519,-0.6516,-0.6513,-0.6442,-0.6433,-0.6425,0,0,0,0,0,-0.6225,-0.6204,-0.6228,-0.6235,-0.6285,-0.6306,-0.6313,-0.6359,-0.6385,-0.6378,-0.6413,-0.6451,-0.6485,-0.65,-0.6506,-0.6488,-0.652,-0.6517,-0.6513,-0.6446,-0.6435,-0.6425,0,0,0,0,0,0,-0.6147,-0.6212,-0.6239,-0.6235,-0.6264,-0.6319,-0.6312,-0.6346,-0.6369,-0.6374,-0.6431,-0.6441,-0.644,-0.6465,-0.648,-0.6471,-0.6508,-0.6505,-0.6455,-0.6445,-0.6436,-0.643,-0.654,0,0,0,0,0,-0.6129,-0.6141,-0.6197,-0.6188,-0.6202,-0.6254,-0.6265,-0.6298,-0.6331,-0.6343,-0.638,-0.6409,-0.6427,-0.6437,-0.6457,-0.6446,-0.6458,-0.6437,-0.6429,-0.6421,-0.6418,-0.6415,-0.6406,-0.65,-0.65,-0.65,0,0,-0.6093,-0.613,-0.6134,-0.6174,-0.62,-0.6211,-0.6264,-0.6273,-0.6281,-0.6345,-0.6352,-0.6379,-0.6417,-0.6414,-0.6415,-0.6435,-0.6395,-0.6417,-0.6411,-0.6412,-0.641,-0.6401,-0.6393,-0.6497,-0.6498,-0.6498,0,0,-0.6033,-0.6062,-0.6058,-0.6084,-0.6123,-0.6159,-0.6157,-0.6207,-0.6228,-0.6236,-0.6285,-0.6295,-0.6324,-0.6349,-0.6365,-0.6315,-0.635,-0.6319,-0.6275,-0.6271,-0.6264,-0.6257,-0.6239,-0.6232,-0.6316,-0.6316,-0.6316,0,-0.5983,-0.6,-0.6051,-0.6057,-0.6073,-0.6132,-0.6128,-0.6151,-0.6195,-0.6204,-0.6226,-0.6264,-0.6294,-0.6298,-0.6285,-0.6297,-0.6297,-0.6314,-0.6261,-0.6255,-0.625,-0.6233,-0.6226,-0.6312,-0.6313,-0.6313,-0.6313,0,-0.5937,-0.5948,-0.594,-0.5982,-0.5997,-0.5998,-0.6049,-0.6058,-0.6091,-0.6123,-0.6131,-0.6168,-0.6196,-0.62,-0.6231,-0.6208,-0.6219,-0.625,-0.6288,-0.6236,-0.6221,-0.6215,-0.6306,-0.6308,-0.6309,-0.631,0,0,-0.5829,-0.5899,-0.5895,-0.5914,-0.5963,-0.5973,-0.5977,-0.6004,-0.6011,-0.604,-0.6044,-0.6068,-0.6097,-0.6115,-0.615,-0.6147,-0.6104,-0.6178,-0.618,-0.6163,-0.6081,-0.6057,-0.6049,-0.6128,-0.6127,-0.6127,-0.6078,0,-0.5776,-0.5787,-0.5833,-0.583,-0.5841,-0.5897,-0.5901,-0.5931,-0.5962,-0.5976,-0.601,-0.6026,-0.6063,-0.6075,-0.6074,-0.6109,-0.6088,-0.6114,-0.6133,-0.6133,-0.6121,-0.6041,-0.6016,-0.5968,-0.6072,-0.6072,-0.6071,0,-0.5716,-0.5741,-0.5739,-0.5788,-0.5794,-0.5796,-0.5826,-0.5839,-0.5874,-0.5897,-0.5917,-0.5957,-0.5964,-0.6,-0.6011,-0.6027,-0.6038,-0.6057,-0.6056,-0.6059,-0.6098,-0.6042,-0.5954,-0.5946,-0.6062,-0.6063,-0.6064,0,-0.5637,-0.567,-0.5674,-0.5689,-0.5745,-0.5746,-0.5769,-0.5807,-0.582,-0.5846,-0.5856,-0.5881,-0.5895,-0.5915,-0.596,-0.5982,-0.5965,-0.6005,-0.5984,-0.5983,-0.5977,-0.5977,-0.589,-0.5985,-0.5985,-0.5985,-0.5985,0,-0.5574,-0.557,-0.5639,-0.564,-0.5638,-0.5691,-0.5688,-0.5717,-0.5749,-0.5758,-0.5809,-0.5815,-0.5875,-0.5889,-0.5924,-0.5928,-0.5934,-0.5952,-0.5961,-0.5947,-0.5945,-0.5954,-0.5959,-0.5983,-0.5984,-0.5984,-0.5985,0,-0.5485,-0.5531,-0.5538,-0.5591,-0.5605,-0.56,-0.5646,-0.565,-0.5685,-0.5695,-0.57,-0.5753,-0.5772,-0.582,-0.5851,-0.5875,-0.5868,-0.5886,-0.5856,-0.5862,-0.5838,-0.5839,-0.5753,-0.5744,-0.5845,-0.5844,-0.5843,0,-0.5441,-0.5439,-0.5493,-0.5502,-0.5524,-0.5538,-0.5553,-0.5605,-0.5618,-0.5659,-0.5657,-0.568,-0.5701,-0.5729,-0.577,-0.5794,-0.5813,-0.5781,-0.5816,-0.5802,-0.5811,-0.5811,-0.5811,-0.5773,-0.5771,-0.577,-0.5769,0,-0.5358,-0.5381,-0.5399,-0.5426,-0.5442,-0.5465,-0.5492,-0.5497,-0.5556,-0.5568,-0.5588,-0.5604,-0.5636,-0.5658,-0.5689,-0.5713,-0.5751,-0.5758,-0.5754,-0.5739,-0.5721,-0.573,-0.5834,-0.5759,-0.576,-0.5761,-0.5762,-0.5762,-0.529,-0.5291,-0.5329,-0.5348,-0.5374,-0.5397,-0.5403,-0.5439,-0.5456,-0.5486,-0.5516,-0.5533,-0.5569,-0.5614,-0.5636,-0.565,-0.5669,-0.5664,-0.5663,-0.566,-0.5654,-0.572,-0.5656,-0.5656,-0.5657,-0.5657,-0.5657,0,-0.5209,-0.5236,-0.5253,-0.5289,-0.5304,-0.5339,-0.537,-0.538,-0.5394,-0.5425,-0.5444,-0.5467,-0.5489,-0.5532,-0.5558,-0.556,-0.5578,-0.5565,-0.5565,-0.557,-0.5635,-0.5635,-0.555,-0.555,-0.555,-0.555,-0.555,-0.555,-0.5169,-0.5173,-0.52,-0.5217,-0.5245,-0.5261,-0.5276,-0.5298,-0.5323,-0.5346,-0.5364,-0.5393,-0.5428,-0.5457,-0.5478,-0.5491,-0.5497,-0.5479,-0.5496,-0.5556,-0.5566,-0.5575,-0.5576,-0.548,-0.548,-0.543,-0.543,-0.5429]},{"header":{"parameterUnit":"m.s-1","parameterCategory":1,"la1":30.2991,"la2":30.254,"lo1":-89.0895,"lo2":-89.0444,"dy":0.0017,"dx":0.0017,"nx":28,"ny":28,"refTime":"2025-08-13T21:00:00:Z","depth":0,"parameterNumber":3,"parameterNumberName":"V-component_of_WINDS"},"data":[0,0,0,0,0,0,0,0,0,0,0,0,0,0,0,0,0,0,0,0,0,0,0,0,0,0,0,0,0,0,0,0,0,0,0,0,0,0,0,0,0,0,0,0,0,0,0,0,0,0,0,0,0,0,0,0,0,0,5.8188,5.8185,0,5.7974,5.7972,5.7969,5.7796,5.7794,5.7792,5.779,5.7559,5.7554,5.755,0,0,0,0,0,0,0,0,0,0,0,0,0,5.8434,5.8431,5.8188,5.8185,5.8183,5.7975,5.7972,5.7969,5.7796,5.7794,5.7792,5.779,5.756,5.7555,5.7549,0,0,0,0,0,0,0,0,0,0,0,0,0,5.8285,5.843,5.8188,5.8072,5.8059,5.7975,5.7971,5.7968,5.7796,5.7794,5.7791,5.7789,5.7562,5.7555,5.7549,5.7559,0,0,5.7528,5.7525,0,0,0,0,0,0,0,0,5.8293,5.8276,5.8091,5.808,5.8065,5.7909,5.7973,5.783,5.7797,5.7896,5.779,5.7787,5.7676,5.766,5.7625,5.7548,5.7538,5.7527,5.7523,5.752,5.7518,0,0,0,0,0,0,0,5.8304,5.8284,5.8103,5.8089,5.8073,5.8026,5.8002,5.7945,5.7803,5.7887,5.7874,5.7852,5.7669,5.7632,5.7619,5.7535,5.7527,5.7521,5.7517,5.7514,5.7454,5.7456,0,0,0,0,0,0,5.8334,5.8294,5.811,5.8096,5.8176,5.8024,5.7997,5.7962,5.7803,5.7777,5.7854,5.7844,5.7645,5.7627,5.761,5.7611,5.752,5.7514,5.751,5.7452,5.7455,5.7457,0,0,0,0,0,0,5.834,5.8319,5.8118,5.8191,5.8162,5.8022,5.7984,5.7959,5.7922,5.7779,5.7751,5.7844,5.7642,5.7619,5.7574,5.76,5.7511,5.7505,5.7449,5.7452,5.7456,5.7614,0,0,0,0,0,0,5.8348,5.8323,5.8328,5.8193,5.8159,5.809,5.7986,5.7957,5.7913,5.7898,5.7762,5.7736,5.7639,5.7585,5.7567,5.7589,5.7499,5.7445,5.745,5.7455,5.7606,5.7623,5.7637,0,0,0,0,0,5.8357,5.8378,5.8329,5.8308,5.8164,5.8092,5.8072,5.7963,5.7916,5.7918,5.7825,5.7741,5.7601,5.7582,5.756,5.7581,5.7443,5.7449,5.7454,5.7599,5.7619,5.7637,0,0,0,0,0,0,5.8515,5.8358,5.8302,5.8281,5.8202,5.8063,5.8062,5.7988,5.7917,5.7905,5.7769,5.7739,5.7708,5.7639,5.7621,5.7582,5.7511,5.7512,5.7628,5.7646,5.7662,5.7678,5.7494,0,0,0,0,0,5.8549,5.8508,5.8371,5.8365,5.8329,5.8204,5.8168,5.8091,5.8001,5.7965,5.7869,5.7782,5.7718,5.7678,5.7612,5.7596,5.7562,5.7599,5.7615,5.7628,5.763,5.7615,5.7629,5.7476,5.7475,5.7475,0,0,5.8615,5.8524,5.8506,5.8395,5.8324,5.8281,5.8176,5.8134,5.8099,5.7957,5.7909,5.7836,5.7729,5.7699,5.768,5.764,5.7666,5.7636,5.7648,5.7642,5.7622,5.7637,5.765,5.7479,5.7479,5.7478,0,0,5.8714,5.8643,5.863,5.8562,5.8459,5.8375,5.8373,5.8245,5.8192,5.8143,5.8036,5.799,5.7884,5.7812,5.7761,5.7835,5.7754,5.7817,5.7898,5.7885,5.7897,5.7907,5.7931,5.7942,5.782,5.7821,5.7821,0,5.8808,5.8743,5.8631,5.8597,5.855,5.8425,5.8409,5.8347,5.8225,5.8194,5.8153,5.8017,5.7936,5.7886,5.7905,5.7869,5.7858,5.7831,5.7905,5.7914,5.7921,5.7943,5.7953,5.7829,5.7828,5.7827,5.7826,0,5.8863,5.8819,5.8821,5.8711,5.8665,5.864,5.8521,5.8486,5.8414,5.8334,5.8284,5.8184,5.8094,5.8077,5.8004,5.8016,5.7995,5.7932,5.7857,5.7947,5.7964,5.7972,5.7841,5.7838,5.7835,5.7833,0,0,5.9053,5.8885,5.8887,5.8836,5.8713,5.8674,5.8643,5.856,5.8532,5.8452,5.842,5.8334,5.8275,5.8218,5.8135,5.8124,5.8187,5.8061,5.8056,5.8086,5.8192,5.824,5.8251,5.8134,5.8135,5.8136,5.82,0,5.913,5.9071,5.8971,5.8942,5.8899,5.878,5.8751,5.8671,5.8596,5.8545,5.8459,5.84,5.8328,5.8292,5.8276,5.8184,5.8206,5.8177,5.8098,5.8096,5.8127,5.8261,5.831,5.8377,5.8207,5.8208,5.8209,0,5.9213,5.9145,5.9114,5.8995,5.8973,5.895,5.8866,5.882,5.8725,5.867,5.8609,5.8521,5.8477,5.8412,5.8347,5.833,5.8291,5.8241,5.8241,5.8227,5.8157,5.8249,5.8395,5.8405,5.8219,5.8218,5.8217,0,5.9353,5.9253,5.9222,5.9182,5.9042,5.9029,5.8969,5.8872,5.8829,5.8754,5.8724,5.8643,5.8599,5.8537,5.8427,5.839,5.8374,5.83,5.8325,5.8328,5.8325,5.8326,5.8465,5.8304,5.8304,5.8304,5.8304,0,5.9449,5.9434,5.9283,5.9264,5.9242,5.9126,5.9106,5.9035,5.895,5.8912,5.8802,5.8767,5.8627,5.8574,5.8488,5.8447,5.8427,5.838,5.8356,5.8388,5.8395,5.836,5.8351,5.8306,5.8306,5.8305,5.8305,0,5.9601,5.95,5.9457,5.933,5.9298,5.9288,5.9177,5.9151,5.9071,5.9023,5.9005,5.8877,5.8809,5.8695,5.8593,5.8535,5.851,5.8472,5.8544,5.8529,5.856,5.8558,5.868,5.8689,5.8525,5.8527,5.8528,0,5.9668,5.9655,5.9528,5.9497,5.9443,5.9393,5.935,5.9234,5.9192,5.9084,5.907,5.8996,5.893,5.8827,5.8722,5.8643,5.8601,5.8649,5.8588,5.8621,5.8599,5.8601,5.8598,5.8663,5.8665,5.8667,5.8669,0,5.9798,5.9749,5.9693,5.962,5.9573,5.9508,5.9437,5.9417,5.9284,5.9242,5.9175,5.9124,5.9022,5.8948,5.8855,5.8788,5.8705,5.869,5.8691,5.8722,5.8764,5.874,5.858,5.8686,5.8685,5.8683,5.8682,5.8682,5.9908,5.989,5.9799,5.974,5.9676,5.9613,5.9583,5.9501,5.9444,5.9356,5.9289,5.9226,5.913,5.8997,5.8935,5.8881,5.8843,5.8846,5.8846,5.8848,5.886,5.8775,5.8864,5.8863,5.8862,5.8862,5.8861,0,6.0031,5.9967,5.9914,5.9821,5.9774,5.9706,5.9624,5.9588,5.9536,5.9456,5.9394,5.9316,5.9244,5.9135,5.9053,5.9031,5.8991,5.9013,5.9012,5.8998,5.8899,5.8905,5.9047,5.9047,5.9047,5.9047,5.9047,5.9047,6.0089,6.0056,5.9997,5.9929,5.9863,5.9805,5.9764,5.9704,5.9639,5.9559,5.95,5.9432,5.9338,5.9249,5.9179,5.9148,5.9122,5.9156,5.9114,5.9022,5.9005,5.8989,5.8994,5.9152,5.9152,5.9217,5.9218,5.9218]}]]